Flood From: 18-02-2018 16:00 Until: 19-02-2018 16:00 warning for: Flood Level: Yellow info button

Although rather usual in this region, locally or potentially dangerous phenomena are expected. (such as local winds, summer thunderstorms, rising streams or high waves) Be aware and pay attention to the latest weather updates, especially if you carry out activities exposed to weather or close to a stream or shoreline. 


Meteo18 Weather Cam more information Meteo18 Weather Cam


Thunder radar more information blitzortung!


Rain radar more information rain snow radar


Visit our other weather sites:

Template documentation
and downloads

And another site



Weather Underground History page Text

Daily Summary for February 9, 2018 Units:  Metric    English   Both
« Previous Day
Next Day »
Daily Weekly Monthly Yearly Custom
  High: Low: Average:
Temperature: -17.8 °C -19.6 °C -18.2 °C
Dew Point: -17.8 °C -20.1 °C -18.8 °C
Humidity: Humidity % 86 % 92 %
Wind Speed: 0 km/h 0 km/h 7.9 km/h
Wind Gust: 0 km/h - -
Wind:- - SE
Pressure: 0 hPa 34337.4 hPa -
Precipitation: 0 mm    
Historical Graphs
 
 
Tabular Data for February 9, 2018
Time Temperature Dew Point Pressure Wind Wind Speed Wind Gust Humidity Rainfall Rate (Hourly)
-17.8 °C -17.8 °C 0 hPa Calm     Humidity % 0 mm
00:03 -18.2 °C -19.1 °C 34533.8 hPa NNE 2.3 km/h 7.7 km/h 89 % 0 mm
00:09 -18.2 °C -19.1 °C 34533.8 hPa Calm   12.9 km/h 89 % 0 mm
00:15 -18.3 °C -19.2 °C 34533.8 hPa NNE 12.7 km/h 12.9 km/h 89 % 0 mm
00:21 -18.3 °C -19.2 °C 34533.8 hPa NNE 7.6 km/h 12.9 km/h 88 % 0 mm
00:27 -18.3 °C -19.3 °C 34533.8 hPa Calm   7.7 km/h 88 % 0 mm
00:33 -18.4 °C -19.3 °C 34520.3 hPa NNE 5.1 km/h 7.7 km/h 89 % 0 mm
00:39 -18.4 °C -19.3 °C 34520.3 hPa Calm   5.1 km/h 89 % 0 mm
00:45 -18.4 °C -19.3 °C 34520.3 hPa Calm   5.1 km/h 89 % 0 mm
00:51 -18.4 °C -19.3 °C 34520.3 hPa NNE 2.3 km/h 5.1 km/h 89 % 0 mm
00:57 -18.4 °C -19.3 °C 34520.3 hPa Calm   2.6 km/h 89 % 0 mm
01:03 -18.4 °C -19.2 °C 34520.3 hPa Calm   2.6 km/h 90 % 0 mm
01:09 -18.4 °C -19.2 °C 34520.3 hPa Calm   2.6 km/h 90 % 0 mm
01:15 -18.5 °C -19.2 °C 34520.3 hPa Calm   5.1 km/h 91 % 0 mm
01:21 -18.4 °C -19.2 °C 34520.3 hPa NNE 2.3 km/h 5.1 km/h 91 % 0 mm
01:27 -18.4 °C -19.1 °C 34520.3 hPa Calm   5.1 km/h 92 % 0 mm
01:33 -18.4 °C -19.1 °C 34520.3 hPa Calm   10.3 km/h 92 % 0 mm
01:39 -18.4 °C -19.1 °C 34520.3 hPa NNE 10.3 km/h 10.3 km/h 92 % 0 mm
01:45 -18.4 °C -19.2 °C 34520.3 hPa NNE 2.3 km/h 12.9 km/h 91 % 0 mm
01:51 -18.4 °C -19.2 °C 34520.3 hPa NNE 7.6 km/h 10.3 km/h 91 % 0 mm
01:57 -18.4 °C -19.1 °C 34520.3 hPa NNE 2.3 km/h 7.7 km/h 92 % 0 mm
02:03 -18.4 °C -19.1 °C 34510.1 hPa NNE 5.1 km/h 12.9 km/h 92 % 0 mm
02:09 -18.4 °C -19.2 °C 34510.1 hPa NNE 7.6 km/h 15.6 km/h 91 % 0 mm
02:15 -18.4 °C -19.2 °C 34510.1 hPa NNE 12.7 km/h 15.6 km/h 90 % 0 mm
02:22 -18.4 °C -19.3 °C 34510.1 hPa NNE 7.6 km/h 20.8 km/h 89 % 0 mm
02:28 -18.4 °C -19.3 °C 34510.1 hPa NNE 2.3 km/h 12.9 km/h 89 % 0 mm
02:34 -18.4 °C -19.3 °C 34510.1 hPa NNE 15.6 km/h 18.2 km/h 89 % 0 mm
02:40 -18.4 °C -19.3 °C 34510.1 hPa NNE 17.9 km/h 18.2 km/h 89 % 0 mm
02:46 -18.4 °C -19.3 °C 34510.1 hPa NNE 7.6 km/h 12.9 km/h 89 % 0 mm
02:52 -18.4 °C -19.3 °C 34496.6 hPa NNE 15.6 km/h 15.6 km/h 89 % 0 mm
02:58 -18.4 °C -19.3 °C 34496.6 hPa NNE 5.1 km/h 12.9 km/h 89 % 0 mm
03:04 -18.4 °C -19.3 °C 34496.6 hPa NNE 5.1 km/h 10.3 km/h 89 % 0 mm
03:10 -18.4 °C -19.3 °C 34496.6 hPa NNE 7.6 km/h 10.3 km/h 89 % 0 mm
03:16 -18.4 °C -19.3 °C 34486.4 hPa NNE 7.6 km/h 10.3 km/h 89 % 0 mm
03:22 -18.4 °C -19.3 °C 34486.4 hPa NNE 2.3 km/h 7.7 km/h 89 % 0 mm
03:28 -18.4 °C -19.2 °C 34486.4 hPa NNE 10.3 km/h 10.3 km/h 90 % 0 mm
03:34 -18.5 °C -19.3 °C 34486.4 hPa NNE 5.1 km/h 10.3 km/h 90 % 0 mm
03:40 -18.5 °C -19.3 °C 34486.4 hPa NNE 10.3 km/h 10.3 km/h 90 % 0 mm
03:46 -18.5 °C -19.3 °C 34486.4 hPa NNE 2.3 km/h 10.3 km/h 90 % 0 mm
03:52 -18.5 °C -19.2 °C 34476.3 hPa NNE 5.1 km/h 7.7 km/h 91 % 0 mm
03:58 -18.6 °C -19.3 °C 34462.7 hPa NNE 7.6 km/h 12.9 km/h 91 % 0 mm
04:04 -18.6 °C -19.3 °C 34462.7 hPa NNE 2.3 km/h 7.7 km/h 91 % 0 mm
04:10 -18.6 °C -19.3 °C 34462.7 hPa Calm   5.1 km/h 91 % 0 mm
04:16 -18.6 °C -19.3 °C 34462.7 hPa NNE 2.3 km/h 5.1 km/h 91 % 0 mm
04:22 -18.6 °C -19.3 °C 34462.7 hPa NNE 2.3 km/h 7.7 km/h 91 % 0 mm
04:28 -18.5 °C -19.1 °C 34462.7 hPa NNE 2.3 km/h 7.7 km/h 92 % 0 mm
04:34 -18.6 °C -19.2 °C 34462.7 hPa NNE 2.3 km/h 12.9 km/h 92 % 0 mm
04:40 -18.6 °C -19.2 °C 34462.7 hPa NNE 7.6 km/h 7.7 km/h 92 % 0 mm
04:46 -18.6 °C -19.2 °C 34462.7 hPa NNE 2.3 km/h 10.3 km/h 92 % 0 mm
04:52 -18.6 °C -19.2 °C 34462.7 hPa NNE 12.7 km/h 20.8 km/h 92 % 0 mm
04:58 -18.5 °C -19.2 °C 34462.7 hPa NNE 2.3 km/h 10.3 km/h 91 % 0 mm
05:04 -18.5 °C -19.1 °C 34462.7 hPa NNE 7.6 km/h 10.3 km/h 92 % 0 mm
05:10 -18.5 °C -19.1 °C 34462.7 hPa NNE 5.1 km/h 12.9 km/h 92 % 0 mm
05:16 -18.5 °C -19.1 °C 34462.7 hPa NNE 5.1 km/h 12.9 km/h 92 % 0 mm
05:22 -18.6 °C -19.2 °C 34462.7 hPa NNE 10.3 km/h 18.2 km/h 92 % 0 mm
05:28 -18.6 °C -19.3 °C 34462.7 hPa NNE 10.3 km/h 20.8 km/h 91 % 0 mm
05:34 -18.7 °C -19.3 °C 34462.7 hPa NNE 7.6 km/h 10.3 km/h 92 % 0 mm
05:40 -18.7 °C -19.5 °C 34462.7 hPa NNE 10.3 km/h 18.2 km/h 90 % 0 mm
05:46 -18.7 °C -19.4 °C 34462.7 hPa NNE 15.6 km/h 15.6 km/h 91 % 0 mm
05:52 -18.7 °C -19.4 °C 34462.7 hPa NNE 12.7 km/h 12.9 km/h 91 % 0 mm
05:58 -18.8 °C -19.5 °C 34452.6 hPa NNE 10.3 km/h 10.3 km/h 91 % 0 mm
06:04 -18.8 °C -19.5 °C 34452.6 hPa NNE 2.3 km/h 12.9 km/h 91 % 0 mm
06:10 -18.8 °C -19.5 °C 34452.6 hPa NNE 2.3 km/h 10.3 km/h 91 % 0 mm
06:16 -18.8 °C -19.5 °C 34452.6 hPa NNE 5.1 km/h 10.3 km/h 91 % 0 mm
06:22 -18.8 °C -19.5 °C 34452.6 hPa NNE 7.6 km/h 12.9 km/h 91 % 0 mm
06:28 -18.8 °C -19.5 °C 34442.4 hPa NNE 2.3 km/h 10.3 km/h 91 % 0 mm
06:34 -18.8 °C -19.5 °C 34442.4 hPa NNE 7.6 km/h 12.9 km/h 91 % 0 mm
06:41 -18.8 °C -19.6 °C 34442.4 hPa NNE 7.6 km/h 12.9 km/h 90 % 0 mm
06:47 -18.8 °C -19.6 °C 34442.4 hPa NNE 7.6 km/h 12.9 km/h 91 % 0 mm
06:53 -18.9 °C -19.7 °C 34442.4 hPa NNE 7.6 km/h 15.6 km/h 90 % 0 mm
06:59 -18.9 °C -19.7 °C 34442.4 hPa NNE 5.1 km/h 7.7 km/h 90 % 0 mm
07:05 -19 °C -19.7 °C 34442.4 hPa NNE 2.3 km/h 5.1 km/h 91 % 0 mm
07:11 -19.1 °C -19.8 °C 34442.4 hPa NNE 2.3 km/h 5.1 km/h 91 % 0 mm
07:17 -19.2 °C -19.8 °C 34442.4 hPa NNE 5.1 km/h 5.1 km/h 92 % 0 mm
07:23 -19.2 °C -19.8 °C 34442.4 hPa NNE 2.3 km/h 7.7 km/h 92 % 0 mm
07:29 -19.3 °C -19.9 °C 34442.4 hPa NNE 5.1 km/h 5.1 km/h 92 % 0 mm
07:35 -19.3 °C -19.8 °C 34442.4 hPa NNE 2.3 km/h 5.1 km/h 93 % 0 mm
07:41 -19.3 °C -19.8 °C 34428.8 hPa NNE 2.3 km/h 5.1 km/h 93 % 0 mm
07:47 -19.3 °C -19.9 °C 34428.8 hPa NNE 2.3 km/h 5.1 km/h 93 % 0 mm
07:53 -19.4 °C -19.9 °C 34428.8 hPa NNE 5.1 km/h 5.1 km/h 93 % 0 mm
07:59 -19.4 °C -19.9 °C 34428.8 hPa NNE 2.3 km/h 10.3 km/h 93 % 0 mm
08:05 -19.4 °C -20 °C 34428.8 hPa Calm   7.7 km/h 93 % 0 mm
08:11 -19.5 °C -19.9 °C 34428.8 hPa Calm   7.7 km/h 94 % 0 mm
08:17 -19.5 °C -19.9 °C 34428.8 hPa NNE 5.1 km/h 5.1 km/h 94 % 0 mm
08:23 -19.6 °C -20 °C 34428.8 hPa Calm   7.7 km/h 94 % 0 mm
08:29 -19.6 °C -20 °C 34428.8 hPa NNE 5.1 km/h 10.3 km/h 94 % 0 mm
08:35 -19.5 °C -19.9 °C 34428.8 hPa Calm   12.9 km/h 94 % 0 mm
08:41 -19.6 °C -20.1 °C 34428.8 hPa NNE 5.1 km/h 15.6 km/h 93 % 0 mm
08:47 -19.6 °C -20 °C 34428.8 hPa NNE 2.3 km/h 7.7 km/h 94 % 0 mm
08:53 -19.4 °C -19.9 °C 34428.8 hPa NNE 2.3 km/h 5.1 km/h 94 % 0 mm
08:59 -19.4 °C -19.9 °C 34428.8 hPa NNE 2.3 km/h 7.7 km/h 93 % 0 mm
09:05 -19.4 °C -19.9 °C 34428.8 hPa NNE 7.6 km/h 12.9 km/h 93 % 0 mm
09:12 -19.3 °C -19.9 °C 34428.8 hPa NNE 5.1 km/h 12.9 km/h 93 % 0 mm
09:18 -19.3 °C -19.9 °C 34428.8 hPa NNE 5.1 km/h 15.6 km/h 93 % 0 mm
09:24 -19.3 °C -19.9 °C 34418.7 hPa NNE 5.1 km/h 12.9 km/h 93 % 0 mm
09:30 -19.2 °C -19.8 °C 34418.7 hPa NNE 5.1 km/h 15.6 km/h 93 % 0 mm
09:36 -19.2 °C -19.7 °C 34418.7 hPa NNE 7.6 km/h 10.3 km/h 93 % 0 mm
09:42 -19.1 °C -19.7 °C 34418.7 hPa NNE 5.1 km/h 10.3 km/h 93 % 0 mm
09:48 -19 °C -19.6 °C 34418.7 hPa NNE 5.1 km/h 15.6 km/h 92 % 0 mm
09:54 -18.9 °C -19.6 °C 34418.7 hPa NNE 12.7 km/h 12.9 km/h 92 % 0 mm
10:00 -19 °C -19.7 °C 34418.7 hPa NNE 7.6 km/h 15.6 km/h 91 % 0 mm
10:06 -18.9 °C -19.7 °C 34418.7 hPa NNE 10.3 km/h 15.6 km/h 91 % 0 mm
10:12 -18.8 °C -19.6 °C 34405.1 hPa NNE 12.7 km/h 20.8 km/h 91 % 0 mm
10:18 -18.7 °C -19.5 °C 34405.1 hPa NNE 17.9 km/h 25.9 km/h 90 % 0 mm
10:24 -18.7 °C -19.4 °C 34405.1 hPa NNE 15.6 km/h 20.8 km/h 90 % 0 mm
10:30 -18.7 °C -19.4 °C 34418.7 hPa NNE 17.9 km/h 20.8 km/h 90 % 0 mm
10:36 -18.6 °C -19.4 °C 34405.1 hPa NNE 15.6 km/h 20.8 km/h 89 % 0 mm
10:42 -18.5 °C -19.4 °C 34405.1 hPa NNE 12.7 km/h 18.2 km/h 89 % 0 mm
10:48 -18.4 °C -19.3 °C 34405.1 hPa NNE 7.6 km/h 20.8 km/h 89 % 0 mm
10:54 -18.4 °C -19.3 °C 34405.1 hPa NNE 12.7 km/h 23.3 km/h 88 % 0 mm
11:00 -18.3 °C -19.3 °C 34405.1 hPa SW 20.9 km/h 23.3 km/h 88 % 0 mm
11:06 -18.3 °C -19.2 °C 34405.1 hPa SW 20.9 km/h 23.3 km/h 88 % 0 mm
11:12 -18.3 °C -19.2 °C 34405.1 hPa SW 15.6 km/h 18.2 km/h 88 % 0 mm
11:18 -18.3 °C -19.2 °C 34405.1 hPa SW 23 km/h 23.3 km/h 88 % 0 mm
11:24 -18.2 °C -19.1 °C 34405.1 hPa SSW 12.7 km/h 18.2 km/h 89 % 0 mm
11:30 -18.2 °C -19.2 °C 34405.1 hPa SSW 10.3 km/h 18.2 km/h 88 % 0 mm
11:36 -18.2 °C -19.1 °C 34395 hPa SW 15.6 km/h 18.2 km/h 88 % 0 mm
11:42 -18.2 °C -19.1 °C 34395 hPa SSW 15.6 km/h 18.2 km/h 88 % 0 mm
11:48 -18.1 °C -19.1 °C 34384.8 hPa SSW 10.3 km/h 15.6 km/h 88 % 0 mm
11:54 -18.1 °C -19.1 °C 34384.8 hPa SSW 12.7 km/h 25.9 km/h 88 % 0 mm
12:00 -18.1 °C -19.1 °C 34384.8 hPa SSW 12.7 km/h 20.8 km/h 88 % 0 mm
12:06 -18.1 °C -19.1 °C 34384.8 hPa South 10.3 km/h 18.2 km/h 88 % 0 mm
12:12 -18 °C -18.9 °C 34384.8 hPa South 15.6 km/h 20.8 km/h 88 % 0 mm
12:18 -17.9 °C -19 °C 34384.8 hPa South 17.9 km/h 20.8 km/h 87 % 0 mm
12:24 -17.9 °C -19.1 °C 34371.3 hPa SSW 17.9 km/h 25.9 km/h 86 % 0 mm
12:30 -17.9 °C -18.9 °C 34371.3 hPa SW 17.9 km/h 28.5 km/h 87 % 0 mm
12:36 -17.9 °C -18.9 °C 34371.3 hPa SW 15.6 km/h 28.5 km/h 87 % 0 mm
12:42 -17.8 °C -19 °C 34371.3 hPa SSW 17.9 km/h 23.3 km/h 86 % 0 mm
12:48 -17.7 °C -18.9 °C 34371.3 hPa SW 17.9 km/h 25.9 km/h 86 % 0 mm
12:54 -17.7 °C -18.9 °C 34371.3 hPa SW 23 km/h 28.5 km/h 86 % 0 mm
13:00 -17.7 °C -18.8 °C 34361.1 hPa SSW 26.2 km/h 26.2 km/h 86 % 0 mm
13:06 -17.7 °C -18.8 °C 34361.1 hPa South 17.9 km/h 28.5 km/h 86 % 0 mm
13:12 -17.6 °C -18.8 °C 34361.1 hPa SW 15.6 km/h 25.9 km/h 86 % 0 mm
13:18 -17.6 °C -18.8 °C 34347.6 hPa SW 17.9 km/h 25.9 km/h 86 % 0 mm
13:24 -17.6 °C -18.8 °C 34347.6 hPa SW 17.9 km/h 28.5 km/h 86 % 0 mm
13:30 -17.6 °C -18.7 °C 34347.6 hPa SSW 17.9 km/h 18.2 km/h 87 % 0 mm
13:36 -17.7 °C -18.8 °C 34361.1 hPa WSW 12.7 km/h 23.3 km/h 86 % 0 mm
13:42 -17.6 °C -18.8 °C 34347.6 hPa SW 20.9 km/h 31.1 km/h 86 % 0 mm
13:48 -17.6 °C -18.7 °C 34347.6 hPa WSW 15.6 km/h 25.9 km/h 87 % 0 mm
13:54 -17.6 °C -18.7 °C 34347.6 hPa SSW 20.9 km/h 33.6 km/h 87 % 0 mm
14:00 -17.6 °C -18.7 °C 34347.6 hPa South 17.9 km/h 23.3 km/h 87 % 0 mm
14:06 -17.6 °C -18.6 °C 34347.6 hPa SSW 17.9 km/h 25.9 km/h 88 % 0 mm
14:12 -17.6 °C -18.4 °C 34337.4 hPa SW 20.9 km/h 28.5 km/h 89 % 0 mm
14:18 -17.6 °C -18.4 °C 34347.6 hPa SW 15.6 km/h 23.3 km/h 89 % 0 mm
14:24 -17.6 °C -18.5 °C 34337.4 hPa SW 20.9 km/h 25.9 km/h 89 % 0 mm
14:30 -17.7 °C -18.5 °C 34337.4 hPa SSW 20.9 km/h 28.5 km/h 90 % 0 mm
14:36 -17.7 °C -18.3 °C 34337.4 hPa SSW 15.6 km/h 23.3 km/h 92 % 0 mm
14:42 -17.8 °C -18.4 °C 34337.4 hPa SSW 15.6 km/h 23.3 km/h 92 % 0 mm
14:48 -17.8 °C -18.4 °C 34337.4 hPa SSW 10.3 km/h 23.3 km/h 93 % 0 mm
14:54 -17.9 °C -18.3 °C 34337.4 hPa South 12.7 km/h 15.6 km/h 94 % 0 mm
15:00 -17.9 °C -18.3 °C 34337.4 hPa SSW 10.3 km/h 18.2 km/h 94 % 0 mm
15:06 -17.9 °C -18.3 °C 34337.4 hPa SW 7.6 km/h 12.9 km/h 95 % 0 mm
15:12 -17.9 °C -18.3 °C 34337.4 hPa SSW 10.3 km/h 10.3 km/h 95 % 0 mm
15:18 -17.9 °C -18.3 °C 34337.4 hPa SSW 7.6 km/h 12.9 km/h 95 % 0 mm
15:24 -17.9 °C -18.3 °C 34337.4 hPa SW 12.7 km/h 15.6 km/h 96 % 0 mm
15:30 -17.9 °C -18.3 °C 34337.4 hPa SSW 10.3 km/h 20.8 km/h 96 % 0 mm
15:36 -17.9 °C -18.3 °C 34337.4 hPa SSW 10.3 km/h 15.6 km/h 96 % 0 mm
15:42 -17.9 °C -18.3 °C 34337.4 hPa SSW 10.3 km/h 15.6 km/h 96 % 0 mm
15:48 -17.9 °C -18.3 °C 34337.4 hPa SSW 10.3 km/h 12.9 km/h 96 % 0 mm
15:54 -17.9 °C -18.3 °C 34337.4 hPa SSW 10.3 km/h 15.6 km/h 96 % 0 mm
16:00 -17.9 °C -18.3 °C 34337.4 hPa SSW 10.3 km/h 15.6 km/h 96 % 0 mm
16:06 -17.9 °C -18.3 °C 34337.4 hPa SSW 5.1 km/h 10.3 km/h 96 % 0 mm
16:12 -17.9 °C -18.3 °C 34337.4 hPa South 5.1 km/h 10.3 km/h 96 % 0 mm
16:18 -17.9 °C -18.2 °C 34337.4 hPa SW 7.6 km/h 10.3 km/h 96 % 0 mm
16:24 -17.9 °C -18.2 °C 34337.4 hPa SSW 7.6 km/h 7.7 km/h 96 % 0 mm
16:30 -17.9 °C -18.2 °C 34337.4 hPa SSW 10.3 km/h 10.3 km/h 96 % 0 mm
16:36 -17.9 °C -18.1 °C 34337.4 hPa SW 7.6 km/h 7.7 km/h 97 % 0 mm
16:42 -17.9 °C -18.1 °C 34337.4 hPa SW 2.3 km/h 7.7 km/h 97 % 0 mm
16:48 -17.9 °C -18.1 °C 34337.4 hPa SSW 5.1 km/h 10.3 km/h 97 % 0 mm
16:54 -17.9 °C -18.1 °C 34337.4 hPa SW 2.3 km/h 5.1 km/h 97 % 0 mm
17:00 -17.9 °C -18.1 °C 34337.4 hPa SSW 5.1 km/h 7.7 km/h 97 % 0 mm
17:06 -17.8 °C -18.1 °C 34337.4 hPa SW 7.6 km/h 10.3 km/h 97 % 0 mm
17:12 -17.8 °C -18.1 °C 34337.4 hPa SSW 7.6 km/h 7.7 km/h 97 % 0 mm
17:18 -17.8 °C -18.1 °C 34337.4 hPa WSW 2.3 km/h 5.1 km/h 97 % 0 mm
17:24 -17.8 °C -18.1 °C 34337.4 hPa Calm   2.6 km/h 97 % 0 mm
17:30 -17.8 °C -18.1 °C 34337.4 hPa Calm   2.6 km/h 97 % 0 mm
17:36 -17.8 °C -18.1 °C 34347.6 hPa Calm     97 % 0 mm
17:42 -17.8 °C -18.1 °C 34347.6 hPa Calm     97 % 0 mm
17:48 -17.8 °C -18 °C 34347.6 hPa Calm     97 % 0 mm
17:54 -17.8 °C -18.1 °C 34347.6 hPa Calm     96 % 0 mm
18:00 -17.8 °C -18.2 °C 34347.6 hPa Calm   2.6 km/h 96 % 0 mm
18:06 -17.8 °C -18.2 °C 34361.1 hPa Calm   2.6 km/h 96 % 0 mm
18:12 -17.8 °C -18.2 °C 34361.1 hPa Calm   2.6 km/h 96 % 0 mm
18:18 -17.8 °C -18.1 °C 34361.1 hPa Calm   2.6 km/h 96 % 0 mm
18:25 -17.8 °C -18.1 °C 34361.1 hPa Calm   2.6 km/h 96 % 0 mm
18:31 -17.7 °C -18.1 °C 34361.1 hPa Calm     96 % 0 mm
18:37 -17.7 °C -18 °C 34361.1 hPa Calm     96 % 0 mm
18:43 -17.7 °C -18 °C 34371.3 hPa Calm   2.6 km/h 96 % 0 mm
18:49 -17.7 °C -18 °C 34371.3 hPa Calm   2.6 km/h 96 % 0 mm
18:55 -17.7 °C -18.1 °C 34384.8 hPa Calm   2.6 km/h 95 % 0 mm
19:01 -17.7 °C -18.1 °C 34384.8 hPa Calm   5.1 km/h 95 % 0 mm
19:07 -17.7 °C -18.1 °C 34384.8 hPa WNW 5.1 km/h 5.1 km/h 95 % 0 mm
19:13 -17.6 °C -18 °C 34384.8 hPa WNW 5.1 km/h 10.3 km/h 95 % 0 mm
19:19 -17.6 °C -17.9 °C 34395 hPa NW 5.1 km/h 10.3 km/h 95 % 0 mm
19:25 -17.6 °C -17.9 °C 34395 hPa NW 7.6 km/h 10.3 km/h 95 % 0 mm
19:31 -17.6 °C -17.9 °C 34395 hPa NW 7.6 km/h 12.9 km/h 95 % 0 mm
19:37 -17.6 °C -17.9 °C 34395 hPa West 10.3 km/h 15.6 km/h 95 % 0 mm
19:43 -17.6 °C -17.9 °C 34405.1 hPa West 15.6 km/h 15.6 km/h 95 % 0 mm
19:49 -17.6 °C -17.9 °C 34405.1 hPa WNW 2.3 km/h 15.6 km/h 95 % 0 mm
19:55 -17.6 °C -17.9 °C 34405.1 hPa WNW 7.6 km/h 10.3 km/h 95 % 0 mm
20:01 -17.6 °C -17.9 °C 34405.1 hPa WNW 2.3 km/h 7.7 km/h 95 % 0 mm
20:07 -17.6 °C -18 °C 34405.1 hPa WNW 7.6 km/h 15.6 km/h 95 % 0 mm
20:13 -17.6 °C -18.1 °C 34418.7 hPa West 7.6 km/h 15.6 km/h 94 % 0 mm
20:19 -17.6 °C -18.1 °C 34418.7 hPa WNW 7.6 km/h 15.6 km/h 94 % 0 mm
20:25 -17.6 °C -18.1 °C 34418.7 hPa WNW 5.1 km/h 25.9 km/h 94 % 0 mm
20:31 -17.6 °C -18.1 °C 34418.7 hPa West 5.1 km/h 15.6 km/h 94 % 0 mm
20:37 -17.6 °C -18.1 °C 34418.7 hPa West 7.6 km/h 15.6 km/h 94 % 0 mm
20:43 -17.6 °C -18.1 °C 34428.8 hPa WNW 5.1 km/h 18.2 km/h 94 % 0 mm
20:49 -17.6 °C -18.1 °C 34418.7 hPa West 2.3 km/h 20.8 km/h 94 % 0 mm
20:55 -17.6 °C -18.1 °C 34428.8 hPa West 7.6 km/h 18.2 km/h 94 % 0 mm
21:01 -17.6 °C -18.1 °C 34428.8 hPa WSW 2.3 km/h 12.9 km/h 93 % 0 mm
21:07 -17.6 °C -18.1 °C 34428.8 hPa WNW 5.1 km/h 15.6 km/h 93 % 0 mm
21:13 -17.6 °C -18.1 °C 34428.8 hPa West 2.3 km/h 15.6 km/h 94 % 0 mm
21:19 -17.4 °C -17.9 °C 34428.8 hPa NW 2.3 km/h 12.9 km/h 94 % 0 mm
21:25 -17.4 °C -18 °C 34428.8 hPa NW 7.6 km/h 10.3 km/h 93 % 0 mm
21:31 -17.4 °C -18 °C 34428.8 hPa WNW 7.6 km/h 12.9 km/h 93 % 0 mm
21:37 -17.4 °C -18 °C 34442.4 hPa WNW 10.3 km/h 15.6 km/h 93 % 0 mm
21:43 -17.4 °C -18 °C 34442.4 hPa West 7.6 km/h 10.3 km/h 93 % 0 mm
21:49 -17.4 °C -18 °C 34442.4 hPa WNW 7.6 km/h 12.9 km/h 93 % 0 mm
21:55 -17.4 °C -17.9 °C 34442.4 hPa West 10.3 km/h 18.2 km/h 93 % 0 mm
22:01 -17.4 °C -17.9 °C 34442.4 hPa West 12.7 km/h 18.2 km/h 93 % 0 mm
22:07 -17.4 °C -17.9 °C 34442.4 hPa WNW 7.6 km/h 12.9 km/h 93 % 0 mm
22:13 -17.4 °C -17.9 °C 34452.6 hPa West 5.1 km/h 15.6 km/h 93 % 0 mm
22:19 -17.4 °C -17.9 °C 34452.6 hPa West 12.7 km/h 15.6 km/h 93 % 0 mm
22:25 -17.3 °C -17.9 °C 34452.6 hPa WNW 5.1 km/h 18.2 km/h 93 % 0 mm
22:31 -17.3 °C -17.9 °C 34452.6 hPa WNW 12.7 km/h 15.6 km/h 93 % 0 mm
22:37 -17.4 °C -17.9 °C 34452.6 hPa WNW 12.7 km/h 15.6 km/h 93 % 0 mm
22:43 -17.3 °C -17.9 °C 34452.6 hPa West 10.3 km/h 18.2 km/h 93 % 0 mm
22:49 -17.3 °C -17.9 °C 34452.6 hPa NW 10.3 km/h 20.8 km/h 93 % 0 mm
22:55 -17.3 °C -17.9 °C 34452.6 hPa WNW 10.3 km/h 18.2 km/h 93 % 0 mm
23:01 -17.3 °C -17.9 °C 34452.6 hPa WNW 12.7 km/h 23.3 km/h 93 % 0 mm
23:07 -17.3 °C -17.8 °C 34452.6 hPa WNW 2.3 km/h 18.2 km/h 93 % 0 mm
23:13 -17.3 °C -17.9 °C 34462.7 hPa West 7.6 km/h 20.8 km/h 93 % 0 mm
23:19 -17.3 °C -17.9 °C 34452.6 hPa NW 17.9 km/h 20.8 km/h 93 % 0 mm
23:25 -17.3 °C -17.9 °C 34452.6 hPa WNW 12.7 km/h 20.8 km/h 93 % 0 mm
23:31 -17.3 °C -17.9 °C 34462.7 hPa NW 10.3 km/h 18.2 km/h 93 % 0 mm
23:37 -17.3 °C -17.9 °C 34462.7 hPa NNW 10.3 km/h 18.2 km/h 93 % 0 mm
23:43 -17.4 °C -17.9 °C 34462.7 hPa West 12.7 km/h 18.2 km/h 93 % 0 mm
23:49 -17.4 °C -17.9 °C 34462.7 hPa WNW 2.3 km/h 18.2 km/h 93 % 0 mm
23:55 -17.4 °C -18 °C 34476.3 hPa WNW 10.3 km/h 18.2 km/h 93 % 0 mm
Meteo18
Compliments of Weather Underground - 4 mb

Script developed by  Jim McMurry - jmcmurry@mwt.net Adapted for the template by  Wim van der Kuil - Leuven-Template.eu

You find our weather info also at:

European Weather Network

Weather Underground

Equipment we use:

Weather-station
Davis Vue

Weather-program
Meteobridge

Weather-server
Raspberry PI 2 B+

Provider
1 and 1

Davis Vue

Meteobridge

Raspberry PI 2 B+

1 and 1